User: anonymous   Login
Location: Summit Observatory
(39.5293°N, 75.7290°W)
Time: 04:56:07
(UTC-04:00)
Language:

Gurwin Techsat 1B - Orbit

View from above orbital plane
View from above orbital plane
View from above satellite
View from above satellite

Ground track
Ground track

The orbit data is extracted from the following two-line orbital elements,

1 25397U 98043D   18111.87620597 +.00000000 +00000-0 +19235-4 0  9990
2 25397 098.6457 053.2597 0001610 139.3620 220.7679 14.23643867027499
Epoch (UTC): 21 April 2018 21:01:44
Eccentricity: 0.0001610
inclination: 98.6457°
perigee height: 812 km
apogee height: 814 km
right ascension of ascending node: 53.2597°
argument of perigee: 139.3620°
revolutions per day: 14.23643867
mean anomaly at epoch: 220.7679°
orbit number at epoch: 2749

The dashed part of the orbit path shows where the satellite is in the earth's shadow,  

DLR